Tracking 28792 objects as of 25-Apr-2024
HD Live streaming from Space Station
objects crossing your sky now

STARLINK-1771

Track STARLINK-1771 now!
10-day predictions
STARLINK-1771 is classified as:


NORAD ID: 46384
Int'l Code: 2020-062BM
Perigee: 553.4 km
Apogee: 555.4 km
Inclination: 53.1 °
Period: 95.6 minutes
Semi major axis: 6925 km
RCS: Unknown
Launch date: September 3, 2020
Source: United States (US)
Launch site: AIR FORCE EASTERN TEST RANGE (AFETR)
Your satellite tracking list
Your tracking list is empty




NASA's NSSDC Master Catalog

Two Line Element Set (TLE):
1 46384U 20062BM  24115.51446588 -.00000402  00000-0 -80910-5 0  9990
2 46384  53.0544 207.9910 0001449  96.7017 263.4137 15.06391511201184
Source of the keplerian elements: AFSPC